Location: Audinghen
(50.8518°N, 1.6129°E)
Time: 16:33:08
(UTC+00:00)

COSMOS 2428 - Pass Details

Date: 07 August 2020
Orbit: 844 x 859 km, 70.9° (Epoch: 18 September)

Event Time Altitude Azimuth Distance (km) Brightness Sun altitude
Rises 00:19:23 0° 329° (NNW) 3,434 6.7 -22.7°
Reaches altitude 10° 00:21:50 10° 328° (NNW) 2,496 5.8 -22.6°
Maximum altitude 00:27:34 77° 244° (WSW) 883 2.6 -22.5°
Enters shadow 00:29:11 49° 169° (S) 1,101 2.9 -22.5°
